Regional Weather Roundup
Issued by NWS

Home | Current Version | Previous Version | Text Only | Print | Product List | Glossary On
Versions: 1 2 3 4 5 6 7 8 9 10 11 12 13 14 15 16 17 18 19 20 21 22 23 24 25 26 27 28 29 30 31 32 33 34 35 36 37 38 39 40 41 42 43 44 45 46 47 48 49 50
736
ASUS43 KTOP 280908
RWRKS

WEATHER ROUNDUP FOR KANSAS
NATIONAL WEATHER SERVICE GOODLAND KS
400 AM CDT WED JUN 28 2017

NOTE:  "FAIR" INDICATES FEW OR NO CLOUDS BELOW 12,000 FEET WITH NO
SIGNIFICANT WEATHER AND/OR OBSTRUCTIONS TO VISIBILITY.

KSZ001>006-013>018-027>032-041>047-281000-
NORTHWEST KANSAS

CITY           SKY/WX    TMP DP  RH WIND       PRES   REMARKS
GOODLAND       CLEAR     64  60  87 SE3       29.79S
HILL CITY      TSTM      69  62  78 S20G31    29.76R
RUSSELL        LGT RAIN  71  61  70 SW25G33   29.83R
$$

KSZ061>065-074>080-084>089-281000-
SOUTHWEST KANSAS

CITY           SKY/WX    TMP DP  RH WIND       PRES   REMARKS
DODGE CITY     TSTM      74  62  66 SE12      29.83F
ELKHART          N/A     72  47  41 S20         N/A
GARDEN CITY    CLOUDY    74  60  61 SE18      29.80F
GREAT BEND     TSTM      68  63  84 NW16G24   29.90R
LIBERAL        CLEAR     73  59  61 S20       29.78S
PRATT          CLOUDY    73  64  75 S16G24    29.84F
$$

KSZ066>073-081>083-090>101-281000-
SOUTHEAST KANSAS

CITY           SKY/WX    TMP DP  RH WIND       PRES   REMARKS
COFFEYVILLE    CLEAR     72  65  78 S10       29.89F HAZE
HUTCHINSON     CLOUDY    76  66  71 S20G25    29.82F
MEDICINE LODGE   N/A     75  64  68 S9G18     29.83R
NEWTON         CLOUDY    75  65  70 S21G28    29.85R
PARSONS        CLEAR     72  64  76 S9G18     29.90F
WICHITA INTL   CLOUDY    74  66  76 S18       29.85R
WICHITA JABRA  PTCLDY    74  65  73 S14       29.85R
WICHITA MCCONL PTCLDY    74  64  71 S15       29.86R
WINFIELD       PTCLDY    74  66  76 S15G23    29.88R
$$

KSZ007>012-019>026-033>040-048>060-102>105-281000-
NORTHEAST KANSAS

CITY           SKY/WX    TMP DP  RH WIND       PRES   REMARKS
CONCORDIA      LGT RAIN  72  69  90 S23G32    29.73F
EMPORIA        PTCLDY    72  66  81 S16G25    29.85R
LAWRENCE       CLOUDY    74  66  76 S13G23    29.83S
MANHATTAN      CLOUDY    77  67  71 SW24G30   29.81R
MARYSVILLE     LGT RAIN  72  68  88 S7        29.81R
OLATHE IND     MOCLDY    72  64  76 S15       29.86F
OLATHE EXE     MOCLDY    71  65  81 S13       29.86F
SALINA         CLOUDY    80  66  62 SW20G29   29.82R
TOPEKA BILLARD CLOUDY    76  67  73 S18G25    29.81R
TOPEKA FORBES  CLOUDY    76  66  71 S20       29.82R
$$




USA.gov is the U.S. government's official web portal to all federal, state and local government web resources and services.